Weather History for Port Isabel, TX

Change the Weather History Date:

Monday, May 13, 2013

  Actual Average Record
Temperature  
Mean Temperature 74 °F -  
Max Temperature 80 °F - - ()
Min Temperature 69 °F - - ()
Cooling Degree Days 9    
Growing Degree Days 24 (Base 50)    
Moisture  
Dew Point 66 °F    
Average Humidity 77    
Maximum Humidity 93    
Minimum Humidity 61    
Precipitation  
Precipitation 0.00 in - - ()
Sea Level Pressure  
Sea Level Pressure 30.19 in    
Wind  
Wind Speed 8 mph (NE)    
Max Wind Speed 15 mph    
Max Gust Speed 22 mph    
Visibility 9 miles    
Events      
T = Trace of Precipitation, MM = Missing Value Source: NWS Daily Summary

Daily Weather History Graph

Daily Weather History Graph

Search for Another Location

Airport:

Trip Planner

Search our weather history database for the weather conditions in past years. The results will help you decide how hot, cold, wet, or windy it might be!

Date:

Astronomy

May. 13, 2013 Rise Set
Actual Time 6:43 AM CDT 8:07 PM CDT
Civil Twilight 6:18 AM CDT 8:32 PM CDT
Nautical Twilight 5:49 AM CDT 9:02 PM CDT
Astronomical Twilight 5:18 AM CDT 9:33 PM CDT
Moon 9:33 AM CDT (5/13) 11:17 PM CDT (5/13)
Length of Visible Light 14h 13m
Length of Day
13h 23m
Waxing Crescent, 12% of the Moon is Illuminated
May 13
Waxing Crescent
May 17
First Quarter
May 24
Full
May 31
Last Quarter
Jun 8
New

Hourly Weather History & Observations

Time (CDT) Temp. Dew Point Humidity Pressure Visibility Wind Dir Wind Speed Gust Speed Precip Events Conditions
12:53 AM 71.1 °F 69.1 °F 93% 30.14 in 9.0 mi ENE 5.8 mph - N/A   Clear
1:53 AM 71.1 °F 66.9 °F 87% 30.14 in 9.0 mi NE 4.6 mph - N/A   Mostly Cloudy
2:01 AM 71.6 °F 66.2 °F 83% 30.14 in 9.0 mi NE 5.8 mph - N/A   Scattered Clouds
2:53 AM 70.0 °F 66.9 °F 90% 30.14 in 9.0 mi NNW 3.5 mph - N/A   Clear
3:53 AM 70.0 °F 66.9 °F 90% 30.12 in 9.0 mi North 4.6 mph - N/A   Clear
4:53 AM 70.0 °F 66.9 °F 90% 30.14 in 9.0 mi NNW 4.6 mph - N/A   Clear
5:53 AM 70.0 °F 66.9 °F 90% 30.15 in 8.0 mi NNW 5.8 mph - N/A   Scattered Clouds
6:53 AM 69.1 °F 66.9 °F 93% 30.16 in 7.0 mi North 3.5 mph - N/A   Clear
7:53 AM 70.0 °F 68.0 °F 93% 30.17 in 6.0 mi North 4.6 mph - N/A   Clear
8:53 AM 73.0 °F 68.0 °F 84% 30.20 in 8.0 mi NNE 6.9 mph - N/A   Clear
9:53 AM 75.9 °F 64.0 °F 67% 30.22 in 10.0 mi NNE 11.5 mph - N/A   Clear
10:53 AM 77.0 °F 63.0 °F 62% 30.24 in 10.0 mi NE 8.1 mph - N/A   Clear
11:53 AM 78.1 °F 64.0 °F 62% 30.24 in 10.0 mi ENE 13.8 mph 19.6 mph N/A   Partly Cloudy
12:32 PM 78.8 °F 64.4 °F 61% 30.24 in 10.0 mi ENE 11.5 mph 19.6 mph N/A   Mostly Cloudy
12:50 PM 78.8 °F 64.4 °F 61% 30.24 in 10.0 mi East 12.7 mph 21.9 mph N/A   Scattered Clouds
12:53 PM 78.1 °F 64.9 °F 64% 30.24 in 10.0 mi ENE 15.0 mph 21.9 mph N/A   Scattered Clouds
1:53 PM 79.0 °F 64.9 °F 62% 30.22 in 10.0 mi East 15.0 mph 21.9 mph N/A   Partly Cloudy
3:53 PM 79.0 °F 64.9 °F 62% 30.20 in 10.0 mi ENE 15.0 mph - N/A   Scattered Clouds
4:53 PM 78.1 °F 64.9 °F 64% 30.19 in 10.0 mi ENE 11.5 mph - N/A   Partly Cloudy
5:53 PM 75.9 °F 64.9 °F 69% 30.17 in 10.0 mi East 12.7 mph - N/A   Partly Cloudy
7:53 PM 73.9 °F 66.0 °F 76% 30.16 in 10.0 mi East 10.4 mph - N/A   Clear
8:53 PM 73.0 °F 66.9 °F 81% 30.17 in 10.0 mi East 12.7 mph - N/A   Partly Cloudy
9:53 PM 73.0 °F 66.9 °F 81% 30.19 in 10.0 mi East 9.2 mph - N/A   Clear
10:53 PM 73.0 °F 66.9 °F 81% 30.20 in 10.0 mi East 9.2 mph - N/A   Clear
11:53 PM 73.0 °F 68.0 °F 84% 30.21 in 10.0 mi ESE 6.9 mph - N/A   Scattered Clouds